Location: Bratsk-Energetik
(56.3300°N, 101.7600°E)
Time: 01:16:48
(UTC+08:00)

ISS - Pass Details

Date: 21 May 2017
Orbit: 403 x 406 km, 51.6° (Epoch: 15 December)

Event Time Altitude Azimuth Distance (km) Brightness Sun altitude
Exits shadow 01:17:54 26° 164° (SSE) 874 -2.7 -13.5°
Maximum altitude 01:17:59 26° 161° (SSE) 873 -2.7 -13.5°
Drops below altitude 10° 01:20:49 10° 103° (ESE) 1,493 -1.1 -13.5°
Sets 01:23:07 0° 90° (E) 2,353 0.1 -13.5°
